Regional Weather Roundup
Issued by NWS

Home | Current Version | Previous Version | Graphics & Text | Print | Product List | Glossary On
Versions: 1 2 3 4 5 6 7 8 9 10 11 12 13 14 15 16 17 18 19 20 21 22 23 24 25 26 27 28 29 30 31 32 33 34 35 36 37 38 39 40 41 42 43 44 45 46 47 48 49 50
749
ASUS43 KMKX 291111
RWRWI

WISCONSIN REGIONAL WEATHER ROUNDUP
NATIONAL WEATHER SERVICE MILWAUKEE/SULLIVAN WI
600 AM CDT FRI APR 29 2016

NOTE: "FAIR" INDICATES FEW OR NO CLOUDS BELOW 12,000 FEET WITH NO
SIGNIFICANT WEATHER AND/OR OBSTRUCTIONS TO VISIBILITY.

WIZ001-002-006>008-014>016-023>028-291200-
NORTHWEST WISCONSIN

CITY           SKY/WX    TMP DP  RH WIND       PRES   REMARKS
SUPERIOR ARPT  CLEAR     26  26  99 CALM      30.19R
ASHLAND        CLEAR     27  26  96 CALM      30.18R
HAYWARD        CLOUDY    28  24  85 CALM      30.16R
SIREN          PTCLDY    28  28  97 CALM      30.17F
CUMBERLAND     PTCLDY    32  28  86 CALM      30.14S
RICE LAKE      PTCLDY    34  29  82 CALM      30.16S
CHETEK         MOCLDY    38  35  89 NW5       30.15S WCI  35
LADYSMITH      CLOUDY    40  37  86 W6        30.16R
EAU CLAIRE     CLOUDY    40  38  93 N3        30.14S
MENOMONIE      CLOUDY    39  39  99 NW7       30.15S WCI  34
NEW RICHMOND   FOG       34  34 100 CALM      30.15S VSB 1
OSCEOLA        CLOUDY    35  35 100 N5        30.19S WCI  31
$$

WIZ003>005-009-010-017-018-291200-
NORTH CENTRAL WISCONSIN

CITY           SKY/WX    TMP DP  RH WIND       PRES   REMARKS
MANITOWISH WTR CLOUDY    36  36 100 CALM      30.13R
ARBOR VITAE    CLOUDY    39  37  92 CALM      30.13R
WOODRUFF       CLOUDY    39  37  92 CALM      30.13R
RHINELANDER    CLOUDY    38  35  89 N3        30.12R
EAGLE RIVER    CLOUDY    37  36  93 CALM      30.12R
LAND O LAKES   LGT RAIN  38  34  85 CALM      30.13S
PHILLIPS       CLOUDY    37  35  91 CALM      30.12S
TOMAHAWK       CLOUDY    36  34  95 CALM      30.13R
MEDFORD        CLOUDY    35  35 100 N5        30.11S WCI  31
MERRILL        CLOUDY    37  37 100 CALM      30.12S
$$

WIZ029-030-035-036-043>047-291200-
CENTRAL WISCONSIN

CITY           SKY/WX    TMP DP  RH WIND       PRES   REMARKS
WAUSAU         CLOUDY    40  35  83 N7        30.11R
MOSINEE        CLOUDY    37  37 100 N8        30.12R WCI  31
MARSHFIELD     CLOUDY    39  35  86 N6        30.10S WCI  35
STEVENS POINT  CLOUDY    35  34  96 N5        30.12R WCI  31
WAUPACA        CLOUDY    40  36  83 N5        30.12R
WAUTOMA        CLOUDY    39  36  89 N7        30.11  WCI  34
WISC RAPIDS    CLOUDY    39  34  82 NE6       30.12R WCI  35
CAMP DOUGLAS   CLOUDY    36  36 100 W6        30.12R WCI  31
$$

WIZ011>013-019>022-031-037>040-048>050-291200-
NORTHEAST WISCONSIN

CITY           SKY/WX    TMP DP  RH WIND       PRES   REMARKS
ANTIGO         CLOUDY    36  35  96 N5        30.11R WCI  32
SHAWANO        CLOUDY    40  36  83 CALM      30.12R
OCONTO         CLOUDY    40  34  77 CALM      30.10R
STURGEON BAY   CLOUDY    39  32  75 NE3       30.12R
GREEN BAY      CLOUDY    41  34  76 N6        30.10R
MANITOWOC      LGT RAIN  38  35  89 MISG      30.11R
APPLETON       CLOUDY    39  34  81 N6        30.08R WCI  35
CLINTONVILLE   CLOUDY    37  34  87 N5        30.12R WCI  34
OSHKOSH        CLOUDY    41  35  79 NW7       30.09R
$$

WIZ032>034-041-042-053>061-291200-
SOUTHWEST WISCONSIN

CITY           SKY/WX    TMP DP  RH WIND       PRES   REMARKS
LA CROSSE      CLOUDY    40  36  86 N6        30.14S
SPARTA         CLOUDY    38  37  99 CALM      30.15R
VIROQUA        CLOUDY    37  37 100 N3        30.12R
BOSCOBEL       CLOUDY    41  38  89 N5        30.13R
PRAIRIE DU CHI CLOUDY    41  36  84 CALM      30.12R
PLATTEVILLE    CLOUDY    40  39  97 NW7       30.10R
$$

WIZ056-057-062-063-064-067-068-291200-
SOUTH CENTRAL WISCONSIN

CITY           SKY/WX    TMP DP  RH WIND       PRES   REMARKS
REEDSBURG      CLOUDY    37  37  98 W3        30.11R
BARABOO/DELLS  CLOUDY    37  35  95 W3        30.10R
LONE ROCK      CLOUDY    40  36  86 N7        30.12R
MINERAL POINT  CLOUDY    41  39  93 N6        30.09R FOG
MADISON        CLOUDY    39  36  89 N6        30.09R WCI  35
MIDDLETON      CLOUDY    40  38  91 N7        30.10R
WATERTOWN      CLOUDY    38  38 100 N5        30.08R WCI  35
MONROE         CLOUDY    39  37  93 N3        30.08R
JANESVILLE     CLOUDY    41  41 100 N5        30.08R
$$

WIZ051-052-058>065-066-070>072-291200-
SOUTHEAST WISCONSIN

CITY           SKY/WX    TMP DP  RH WIND       PRES   REMARKS
MILWAUKEE      CLOUDY    40  37  89 N7        30.07R
WAUKESHA       CLOUDY    37  37 100 NW3       30.08R
MILWAUKEE/TIMM CLOUDY    37  36  93 N7        30.08R WCI  32
RACINE         CLOUDY    40  37  89 N6        30.07R
BURLINGTON     CLOUDY    39  38  97 N5        30.07R
KENOSHA        CLOUDY    40  38  93 N8        30.06R WCI  34
FOND DU LAC    CLOUDY    40  37  89 N3        30.08R
SHEBOYGAN      CLOUDY    39  36  89 N5        30.08R
WEST BEND      CLOUDY    37  36  93 CALM      30.08R
JUNEAU         CLOUDY    38  36  93 NW3       30.09R
$$

LSZ147-162-291200-
LAKE SUPERIOR

STATION/POSITION TIME  TEMP    WIND        PRES    WAVE
                       AIR SEA DIR/SP/G            HT/PER
                 (UTC) (F)     (DEG/KT/KT) (MB)    (FT/S)
W MID LAKE BUOY  1050   37 36  360/  6/  6 1022.5R   1/ 4
DEVILS ISLAND    1100   37      50/  5/  6 1022.7R
SAXON HARBOR     1000   30     180/  4/  5 1021.0R
$$

LMZ867-665-643>646-291200-
LAKE MICHIGAN

STATION/POSITION TIME  TEMP    WIND        PRES    WAVE
                       AIR SEA DIR/SP/G            HT/PER
                 (UTC) (F)     (DEG/KT/KT) (MB)    (FT/S)
CHAMBERS ISLAND  1000   40      10/ 10/ 11 1019.3S
N MID LAKE BUOY  1050   39 38   60/  6/  8 1020.0R   1
NORTHPORT PIER   1000   40     340/  3/  5 1019.3S
ALGOMA LAKESHORE 1000           30/  4/  7   N/A
KEWAUNEE LAKESHO 1000   39     340/  2/  4 1018.0R
SHEBOYGAN LAKESH 1100   39      30/  9/ 10 1019.7R
PORT WASHINGTON  1100   40     280/  3/ 22 1019.6R
S MID LAKE BUOY  1050   40 40   60/  8/ 10 1017.2R   1/ 3
KENOSHA   LAKESH 1100   41     360/ 10/ 13 1017.9R
$$

TC  - TEMPERATURE IN CELSIUS
VSB - VISIBILITY IN STATUTE MILES
WCI - WIND CHILL INDEX
HX  - HEAT INDEX





USA.gov is the U.S. government's official web portal to all federal, state and local government web resources and services.